Regional Weather Roundup
Issued by NWS Mt. Holly, NJ

Home | Current Version | Previous Version | Text Only | Print | Product List | Glossary On
Versions: 1 2 3 4 5 6 7 8 9 10 11 12 13 14 15 16 17 18 19 20 21 22 23 24 25 26 27 28 29 30 31 32 33 34 35 36 37 38 39 40 41 42 43 44 45 46 47 48 49 50
000
ASUS41 KPHI 271712
RWRPHI

REGIONAL WEATHER ROUNDUP
NATIONAL WEATHER SERVICE MOUNT HOLLY NJ
1200 PM EST FRI FEB 27 2015

NOTE:  "FAIR" INDICATES FEW OR NO CLOUDS BELOW 12,000 FEET WITH NO
SIGNIFICANT WEATHER AND/OR OBSTRUCTIONS TO VISIBILITY.

 * = STATION DOES NOT REPORT PRECIPITATION (E.G. RAIN, SNOW, ETC.)
        OR FOG.

NJZ015>026-271800-
SOUTHERN NEW JERSEY

CITY           SKY/WX    TMP DP  RH WIND       PRES   REMARKS
POMONA         MOSUNNY   31  17  56 NW14      30.39F WCI  21
RIO GRANDE*    SUNNY     28  16  59 W8        30.39R WCI  20
MILLVILLE      MOSUNNY   30  18  60 N12       30.40S WCI  20
WRIGHTSTOWN    MOSUNNY   27  11  51 NW9       30.38F WCI  18
MOUNT HOLLY    MOSUNNY   25   9  50 NW8       30.42S WCI  16
TRENTON        SUNNY     26   6  42 VRB7      30.40S WCI  18

$$
NJZ001>014-271800-
NORTHERN NEW JERSEY

CITY           SKY/WX    TMP DP  RH WIND       PRES   REMARKS
SUSSEX         SUNNY     22   0  38 VRB5      30.37F WCI  16
ANDOVER*         N/A     22   1  40 N7        30.37F WCI  13
NEWARK         MOSUNNY   26   8  46 N8        30.40F WCI  18
TETERBORO      SUNNY     25   5  42 N8        30.39F WCI  16
CALDWELL       SUNNY     24   3  40 NW7       30.40F WCI  16
SOMERVILLE     SUNNY     26   1  34 N6        30.39F WCI  19
ALLAIRE*       SUNNY     28   9  43 NW8       30.38F WCI  20
TOMS RIVER*    PTSUNNY   28  10  47 N10       30.39F WCI  19

$$
PAZ043-044-047-054-055-060>062-066>071-271800-
EASTERN PENNSYLVANIA

CITY           SKY/WX    TMP DP  RH WIND       PRES   REMARKS
PHILADELPHIA   PTSUNNY   27  10  49 N7        30.44R WCI  19
NORTH PHILA    PTSUNNY   28   8  43 N9        30.43F WCI  19
BLUE BELL      SUNNY     28  10  47 NW7       30.41R WCI  21
DOYLESTOWN     SUNNY     23   6  48 N8        30.40R WCI  14
QUAKERTOWN*    FAIR      21   5  49 W7        30.41R WCI  13
POTTSTOWN      SUNNY     24   5  44 N8        30.43R WCI  15
LANCASTER      SUNNY     22   7  52 NW9       30.42S WCI  12
COATESVILLE    SUNNY     25  10  54 NW10      30.40R WCI  15
READING        SUNNY     23   4  44 NW9       30.42S WCI  13
ALLENTOWN      SUNNY     25   0  33 CALM      30.41S
MOUNT POCONO     N/A    N/A N/A N/A MISG      30.27R
HAZLETON       CLOUDY    18   3  53 W6        30.35R WCI   9
WILKES BARRE   MOSUNNY   18   3  52 N7        30.38R WCI   9

$$
DEZALL-MDZ008-012-015-019-020-271800-
DELAWARE AND EASTERN MARYLAND

CITY           SKY/WX    TMP DP  RH WIND       PRES   REMARKS
WILMINGTON     MOSUNNY   27  13  55 N6        30.44R WCI  20
DOVER          CLOUDY    27  22  82 N12       30.42R WCI  17
GEORGETOWN     PTSUNNY   40  19  43 NE6       30.41R
EASTON         LGT SNOW  30  27  86 N12       30.46  WCI  21
ABERDEEN       MOSUNNY   30  14  51 N7        30.45R WCI  23
PATUXENT       FLURRIES  32  21  64 N12       30.41R WCI  23
OCEAN CITY     MOSUNNY   31  21  66 NE12      30.41R WCI  22
WALLOPS ISLAND CLOUDY    32  25  75 E9        30.39S WCI  24
CAMBRIDGE      PTSUNNY   34  27  75 NW8       30.41R WCI  27
SALISBURY      CLOUDY    35  21  56 N3        30.40R

$$
PAZ001-021-NYZ056-072-MDZ011-DCZ001-271800-
OTHER NEARBY LOCATIONS

CITY           SKY/WX    TMP DP  RH WIND       PRES   REMARKS
HARRISBURG     MOSUNNY   24   7  48 NW8       30.45R WCI  15
STATE COLLEGE  PTSUNNY   18   3  53 W9        30.41R WCI   6
WILLIAMSPORT   MOSUNNY   24   2  38 VRB7      30.44R WCI  16
BINGHAMTON     SUNNY     13  -2  51 W13       30.31S WCI  -2
NEW YORK CITY  NOT AVBL
BALTIMORE      PTSUNNY   30  14  51 NW10      30.43R WCI  21
WASHINGTON DC  PTSUNNY   34  12  40 N17       30.45R WCI  23

$$



USA.gov is the U.S. government's official web portal to all federal, state and local government web resources and services.